This is the latest recevied weather packets stored in our database for station/object SY3EBK-13. If no packets are shown the sender has not sent any weather packets the latest 1 day(s).
| Time | Temp. | Humidity | Pressure | Rain* | Wind** | Luminosity | Snow |
|---|---|---|---|---|---|---|---|
| 1778012726 | 11.11° C | 56% | 916.8 hPa | - | 0 m/s | - | - |
| 1778011826 | 11.11° C | 53% | 916.7 hPa | - | 0 m/s | - | - |
| 1778010926 | 11.67° C | 52% | 916.6 hPa | - | 0 m/s | - | - |
| 1778010026 | 11.67° C | 51% | 916.6 hPa | - | 0 m/s | - | - |
| 1778009126 | 11.67° C | 50% | 916.6 hPa | - | 0 m/s | - | - |
| 1778008226 | 11.67° C | 50% | 916.5 hPa | - | 0 m/s | - | - |
| 1778007326 | 12.22° C | 52% | 916.3 hPa | - | 0 m/s | - | - |
| 1778006426 | 12.22° C | 52% | 916.1 hPa | - | 0 m/s | - | - |
| 1778005526 | 12.22° C | 53% | 915.9 hPa | - | 0 m/s | - | - |
| 1778004626 | 12.78° C | 51% | 915.9 hPa | - | 0 m/s | - | - |
| 1778003726 | 12.78° C | 52% | 916 hPa | - | 0 m/s | - | - |
| 1778002826 | 12.78° C | 52% | 916 hPa | - | 0 m/s | - | - |
| 1778001926 | 13.33° C | 50% | 915.8 hPa | - | 0 m/s | - | - |
| 1778001026 | 13.89° C | 50% | 915.8 hPa | - | 0 m/s | - | - |
| 1778000126 | 14.44° C | 48% | 915.7 hPa | - | 0 m/s | - | - |
| 1777999226 | 14.44° C | 49% | 915.8 hPa | - | 0 m/s | - | - |
| 1777998326 | 14.44° C | 48% | 915.8 hPa | - | 0 m/s | - | - |
| 1777997426 | 14.44° C | 48% | 915.9 hPa | - | 0 m/s | - | - |
| 1777996526 | 15° C | 44% | 915.8 hPa | - | 0 m/s | - | - |
| 1777995626 | 15° C | 45% | 915.8 hPa | - | 0 m/s | - | - |
| 1777994726 | 15° C | 43% | 915.7 hPa | - | 0 m/s | - | - |
| 1777993826 | 15° C | 47% | 915.7 hPa | - | 0 m/s | - | - |
| 1777992926 | 15.56° C | 45% | 915.7 hPa | - | 0 m/s | - | - |
| 1777992026 | 15° C | 47% | 915.7 hPa | - | 0 m/s | - | - |
| 1777991126 | 15.56° C | 47% | 915.8 hPa | - | 0 m/s | - | - |
* Rain since midnight (hover to see other rain measurements)
** Current wind speed in m/s (hover to see current wind gust speed)